Wind_Speed
8 10 12 7 15 12 12 11 8 11 10 7 12 12 13 12 9 8 10 11 12 13 14 15 15 16 17 17 16 18 18 16 15 13 11 9 9 8 9 9 8 7 7 7 10 10 10 11 10
10 10 10 11 12 6 2 9 8 8 5 5 7 12 13 10 10 9 8 8 11 15 16 15 15 14 15 16 17 16 15 14 13 12 10 9 8 8 9 8 9 8 8 8 9 9 9 9 8
10 12 8 18 12 12 8 6 6 8 8 7 8 8 7 9 9 8 8 9 12 13 13 13 13 14 13 14 12 11 11 11 12 11 9 7 6 6 7 8 7 7 8 8 8 8 7 7 6
12 19 20 14 7 7 8 6 6 7 8 9 9 8 6 6 8 10 9 10 10 10 10 10 10 9 10 11 10 10 10 11 11 9 6 5 5 4 6 7 8 7 7 7 5 5 6 5 5
16 23 12 2 3 6 7 7 7 4 5 7 7 7 8 6 8 9 9 9 8 7 8 8 8 8 10 10 10 10 9 9 7 5 4 4 5 4 4 5 6 7 8 7 4 4 3 4 4
28 28 2 3 3 4 4 6 7 8 6 6 5 7 8 7 7 7 7 8 6 6 6 7 8 9 10 10 9 9 9 8 8 6 6 6 5 5 3 3 4 6 7 6 5 3 2 2 2
24 14 3 2 3 5 7 7 7 10 9 7 7 8 11 9 5 4 5 6 5 4 4 6 9 10 9 10 11 11 11 11 11 10 9 9 7 5 4 4 4 5 5 5 4 3 2 1 2
22 17 3 3 3 3 6 8 8 10 11 11 8 10 11 10 7 5 5 6 5 4 5 8 8 7 10 11 12 12 12 12 12 12 12 11 9 8 8 8 7 5 5 5 4 4 3 1 1
23 21 8 7 3 7 6 7 8 9 11 12 11 8 10 12 10 8 8 7 6 8 8 8 8 11 12 12 12 12 10 10 10 10 11 11 11 10 11 11 9 8 7 6 5 5 6 6 5
13 24 10 16 5 14 6 7 8 8 9 10 10 9 11 14 13 10 9 10 10 10 9 10 12 13 13 12 11 10 9 9 9 10 11 11 10 11 12 13 13 12 12 12 12 12 12 11 11
8 1 9 10 14 13 9 8 8 8 7 6 10 11 11 12 13 10 8 9 10 12 13 14 14 13 12 10 9 8 8 8 9 9 10 11 11 11 10 11 12 12 12 13 13 14 12 12 12
10 12 4 5 9 7 9 10 9 10 8 9 7 11 14 14 14 13 12 12 12 12 12 12 12 10 10 9 9 7 7 7 7 8 8 9 10 9 9 8 9 10 11 11 12 12 11 11 11
12 12 13 9 10 11 14 10 9 8 7 9 10 9 11 13 14 14 14 13 13 12 12 11 9 8 7 7 8 7 6 5 6 6 6 6 9 8 8 8 9 9 9 9 9 9 9 8 9
11 12 12 12 12 12 13 11 8 8 7 9 9 9 10 12 14 14 14 14 13 12 11 10 8 7 6 6 7 7 6 6 5 5 6 6 7 6 5 6 6 6 7 6 6 8 8 9 9
19 17 12 13 14 14 13 10 8 9 7 7 9 10 12 12 13 15 15 15 14 12 10 9 8 7 6 4 5 5 5 5 4 5 5 4 5 3 2 2 2 2 3 4 5 6 8 8 9
22 17 9 16 17 17 11 8 8 10 9 9 9 11 12 13 12 12 11 12 12 11 10 9 8 6 4 2 2 2 4 5 6 6 6 6 5 3 3 2 2 3 5 6 8 8 9 10 11
27 17 12 19 20 19 13 10 11 11 11 10 10 10 11 11 12 12 11 11 10 9 9 8 7 6 4 3 4 3 2 4 5 4 5 4 3 2 3 4 6 8 8 9 11 11 13 13 13
22 19 16 19 25 25 18 12 19 11 10 10 10 11 10 9 9 10 10 10 9 9 8 8 8 7 7 6 6 5 3 2 1 1 1 2 2 3 3 5 8 10 11 13 13 14 15 15 15
20 18 18 19 26 24 21 18 16 13 11 11 11 10 10 10 9 9 9 10 10 10 11 10 9 9 9 8 7 7 5 4 4 4 5 7 7 7 9 11 12 12 13 15 15 16 16 16 17
26 24 21 17 26 21 20 18 19 17 14 14 13 11 10 9 9 9 9 11 12 12 11 11 11 11 10 9 9 9 8 8 7 8 8 9 11 13 14 15 15 15 14 14 15 15 16 18 18
32 27 23 22 25 27 22 20 22 23 19 17 16 14 12 12 10 9 9 10 11 12 12 12 11 12 11 11 10 10 10 11 12 12 13 14 16 18 19 17 15 15 15 14 15 16 16 17 18
35 31 26 25 37 25 27 21 28 25 21 19 17 15 13 12 13 13 12 12 12 13 12 11 12 12 11 11 12 12 13 14 15 16 18 19 20 17 15 14 15 16 16 16 17 16 16 18 18
36 29 30 27 29 23 28 26 22 23 22 23 17 15 14 15 16 16 16 16 14 14 14 14 13 14 14 13 14 14 16 17 19 21 22 20 17 16 14 14 14 16 18 19 18 17 18 19 19
37 32 32 31 32 38 30 33 25 28 23 24 21 20 20 19 19 19 17 16 16 16 15 15 16 17 16 15 16 17 19 22 24 24 19 16 16 15 16 16 16 18 20 20 20 20 20 20 20
44 38 38 36 39 39 29 40 26 26 27 23 19 20 25 22 23 22 20 16 13 13 19 19 18 20 20 18 18 20 21 23 22 18 17 17 18 17 17 19 20 24 25 24 23 23 22 21 22
49 47 44 43 35 33 31 37 36 30 25 17 19 18 21 30 26 21 14 14 11 7 8 11 17 19 19 20 20 20 22 19 16 17 19 19 17 16 19 23 24 25 27 29 29 27 25 21 22
47 54 42 36 32 32 31 32 34 31 31 34 33 24 25 32 28 22 14 12 11 10 11 13 16 18 21 20 21 20 17 17 18 15 13 14 15 14 19 18 27 30 32 28 27 31 27 26 25
52 42 48 48 45 41 36 33 30 35 40 31 31 28 27 26 28 24 18 15 13 12 12 12 17 17 18 22 19 16 13 12 12 12 13 11 16 16 18 28 30 33 31 32 35 31 32 31 26
51 57 47 45 47 45 39 35 32 30 29 26 32 26 22 21 25 20 19 19 16 16 13 11 16 18 13 14 14 13 14 13 14 10 11 16 17 20 20 27 28 28 37 48 45 43 39 33 34
42 49 50 50 50 49 44 39 30 30 30 23 22 19 20 21 22 27 24 24 21 17 16 13 15 17 16 17 15 15 15 14 14 14 17 23 21 22 25 28 30 33 42 29 36 28 24 33 32
Wind_Direction
113 101 116 111 41 91 120 129 137 142 137 130 129 110 131 98 152 123 133 132 107 104 107 109 108 114 105 106 111 112 113 113 116 122 133 133 124 111 102 97 98 101 101 112 124 118 118 103 97
101 111 138 115 51 112 211 163 172 154 155 144 144 152 161 159 151 138 129 112 107 103 102 100 101 99 106 109 110 109 116 122 128 134 135 121 117 104 98 104 100 106 110 118 124 124 127 113 108
96 116 134 73 302 39 239 189 175 164 151 142 144 151 161 167 155 137 139 117 110 105 100 99 98 96 97 104 106 119 131 137 142 141 137 127 112 100 102 102 108 111 115 120 126 131 128 130 135
113 104 84 56 191 225 207 191 158 137 137 139 138 143 146 159 138 129 126 113 108 106 95 93 93 103 105 108 124 131 136 139 145 149 143 136 131 111 85 100 105 101 98 94 123 135 144 154 161
109 91 65 135 124 129 154 148 119 169 153 145 141 135 133 138 131 123 117 114 108 97 98 97 98 109 113 119 126 129 130 136 144 142 147 139 138 113 92 89 98 93 85 80 73 83 148 187 194
94 71 65 290 205 179 168 171 167 162 157 155 160 144 127 126 128 136 133 118 109 114 106 106 119 121 123 129 125 126 125 126 118 124 145 139 130 117 115 92 81 92 100 100 91 71 61 96 133
106 109 143 189 160 181 185 194 200 187 175 171 169 170 142 131 123 142 134 130 118 101 129 135 138 140 135 124 127 126 125 124 113 109 107 99 107 108 98 101 90 83 96 100 91 116 150 111 77
118 90 113 10 286 171 173 172 173 188 180 169 178 188 172 161 154 161 161 162 155 145 149 151 148 131 132 131 128 125 118 112 102 98 100 104 105 95 85 79 74 73 78 76 68 82 93 104 101
113 141 137 248 229 266 167 161 168 167 170 176 182 214 234 185 163 173 176 168 161 151 156 145 135 137 130 125 118 112 108 102 98 96 93 90 85 80 76 78 70 70 71 67 64 66 66 60 44
156 130 133 198 51 262 198 167 173 177 178 171 172 178 212 183 170 173 172 162 157 152 154 148 140 131 126 121 108 102 98 94 90 92 89 87 86 81 79 78 75 72 69 66 65 63 59 52 49
155 172 193 257 184 260 229 189 178 170 167 174 179 172 188 179 159 162 169 162 154 152 152 144 137 131 124 114 104 96 91 90 87 90 89 91 87 84 81 73 70 69 69 66 64 64 57 57 56
154 258 184 240 210 194 233 199 184 180 184 167 170 184 179 179 168 166 170 166 154 147 147 139 131 122 113 106 104 101 96 86 87 93 95 95 87 83 82 80 72 67 67 70 71 64 57 53 50
210 189 249 239 230 170 247 207 200 196 194 185 166 169 186 182 175 171 167 160 149 146 144 136 129 119 113 108 108 113 103 96 94 104 95 94 96 88 82 75 71 70 69 64 60 56 55 50 43
228 235 226 230 230 218 198 222 210 207 200 195 165 150 166 169 161 157 157 159 153 151 147 139 133 132 118 106 111 104 105 110 102 102 99 103 94 94 86 76 62 48 44 40 35 34 35 33 22
206 226 243 228 213 216 204 212 222 208 197 194 165 148 161 168 161 162 160 159 163 160 162 159 160 150 129 108 116 109 105 115 113 139 116 112 95 110 87 52 41 33 23 8 19 24 23 17 9
213 215 221 265 214 219 208 233 226 211 193 165 164 152 159 170 165 163 166 170 172 170 169 176 173 159 141 130 174 137 110 108 107 126 112 102 108 113 89 67 9 358 349 343 346 352 349 349 349
209 214 224 222 250 221 204 291 227 215 199 171 160 154 161 161 158 164 177 181 179 178 187 193 192 188 190 209 230 220 176 127 117 114 109 104 103 67 10 346 340 337 330 337 331 330 327 326 326
202 212 217 244 267 231 199 194 232 206 202 190 177 166 168 176 180 181 186 193 196 203 209 214 219 214 222 243 252 238 205 195 182 196 245 305 328 316 315 327 324 326 330 327 324 320 318 314 311
200 219 226 213 257 238 221 197 223 216 207 201 188 183 183 177 188 200 203 208 214 221 228 234 236 233 232 243 253 237 234 244 266 280 293 303 309 309 320 318 313 312 317 316 316 315 313 310 306
195 215 221 225 234 233 225 230 240 231 222 209 204 191 187 188 192 194 206 220 225 228 235 242 236 232 242 248 248 240 245 258 271 279 288 297 305 309 307 306 304 302 302 306 309 312 314 312 307
212 205 217 219 223 236 211 223 234 237 224 216 208 202 192 196 203 208 213 220 229 230 230 234 237 240 245 256 252 253 263 271 273 278 285 289 292 296 296 291 294 292 293 300 308 309 310 307 305
220 209 208 212 236 214 231 223 241 245 233 229 222 218 216 212 218 225 226 231 241 244 249 243 239 241 244 251 254 259 266 271 277 283 287 292 296 294 295 292 292 295 295 297 297 292 295 296 290
219 214 211 214 226 236 233 233 240 221 241 239 230 222 224 228 230 234 237 239 242 247 245 245 247 251 252 252 260 269 274 279 283 284 289 293 292 292 294 296 298 298 297 296 292 289 289 288 283
222 213 220 223 223 235 223 239 227 245 209 246 249 239 237 239 232 234 239 248 252 251 246 244 244 248 252 257 262 270 278 283 282 284 287 289 288 292 294 297 297 295 296 293 291 283 283 288 284
218 215 216 221 227 228 229 238 210 229 246 250 244 246 267 257 240 248 243 241 251 261 257 256 258 257 252 251 261 271 279 285 282 279 286 291 292 293 298 303 304 304 304 297 288 284 281 285 287
223 217 215 220 224 230 227 227 239 239 217 228 223 232 244 269 256 260 255 252 246 267 284 260 252 252 251 249 258 265 277 280 277 280 283 285 289 301 325 318 313 302 298 300 297 289 283 283 285
221 222 220 224 233 232 234 239 230 228 235 230 226 225 249 253 249 256 240 249 259 268 284 269 264 256 243 240 251 264 263 273 276 282 291 311 309 309 337 321 313 313 304 293 296 291 285 281 278
218 226 217 219 222 230 234 232 235 242 242 227 231 233 232 237 250 254 237 244 272 282 275 283 274 262 243 235 247 245 248 246 265 284 297 318 329 313 313 336 323 325 306 292 303 278 274 273 271
225 215 222 226 224 226 232 233 234 244 247 241 228 233 233 242 251 242 240 249 263 280 271 281 281 262 241 215 220 224 236 261 277 290 319 320 328 325 328 333 328 326 311 323 311 288 270 268 272
229 225 217 223 224 226 228 231 238 227 241 221 215 219 235 238 240 262 249 256 263 271 262 274 269 250 225 219 213 230 251 263 275 291 314 318 324 326 338 337 332 337 332 348 354 340 302 275 261
Height
5890 5890 5891 5891 5883 5892 5894 5895 5893 5892 5893 5893 5893 5890 5891 5883 5889 5892 5891 5891 5891 5892 5892 5893 5894 5895 5894 5895 5896 5896 5896 5897 5898 5900 5900 5901 5901 5900 5900 5900 5900 5901 5901 5901 5901 5901 5902 5901 5902
5892 5892 5893 5893 5896 5896 5896 5895 5894 5894 5894 5894 5894 5893 5893 5892 5891 5893 5893 5893 5894 5894 5895 5896 5896 5896 5897 5897 5897 5898 5899 5900 5901 5902 5904 5904 5903 5902 5901 5902 5902 5903 5903 5903 5903 5903 5904 5904 5904
5894 5895 5897 5897 5898 5898 5898 5897 5895 5895 5895 5895 5895 5895 5896 5895 5894 5894 5895 5896 5897 5897 5898 5899 5899 5899 5899 5899 5900 5902 5903 5903 5903 5904 5906 5905 5904 5903 5904 5904 5904 5905 5905 5905 5904 5904 5905 5905 5905
5896 5897 5901 5906 5904 5901 5898 5898 5898 5897 5897 5896 5896 5897 5897 5897 5896 5896 5897 5899 5900 5900 5901 5901 5901 5902 5902 5902 5904 5904 5904 5905 5906 5906 5907 5906 5906 5906 5906 5906 5906 5907 5907 5906 5906 5905 5906 5906 5907
5900 5897 5909 5909 5903 5902 5900 5899 5900 5900 5899 5898 5898 5899 5899 5899 5899 5899 5900 5901 5902 5903 5903 5904 5904 5905 5904 5905 5905 5905 5906 5907 5907 5907 5908 5908 5908 5908 5909 5909 5909 5908 5908 5908 5908 5907 5907 5907 5907
5899 5907 5920 5913 5905 5903 5901 5901 5901 5900 5900 5900 5900 5900 5901 5902 5902 5902 5903 5903 5905 5905 5905 5905 5905 5906 5906 5906 5906 5908 5909 5909 5909 5909 5909 5909 5909 5910 5911 5911 5911 5910 5910 5909 5909 5908 5908 5908 5908
5900 5908 5920 5914 5907 5905 5903 5902 5901 5900 5900 5900 5900 5902 5903 5903 5904 5905 5905 5905 5906 5906 5907 5907 5907 5907 5908 5908 5908 5909 5910 5911 5911 5910 5911 5911 5912 5912 5913 5912 5911 5910 5910 5910 5909 5908 5908 5907 5908
5906 5911 5921 5919 5915 5907 5905 5903 5902 5901 5901 5901 5901 5902 5903 5903 5905 5906 5906 5906 5907 5907 5908 5908 5909 5910 5910 5910 5911 5911 5912 5912 5912 5913 5913 5913 5913 5913 5913 5912 5912 5911 5911 5911 5910 5909 5908 5907 5907
5907 5908 5918 5918 5916 5909 5906 5904 5903 5902 5902 5902 5902 5903 5903 5903 5904 5905 5906 5907 5908 5908 5909 5910 5911 5911 5911 5912 5913 5913 5913 5914 5914 5915 5915 5915 5914 5914 5913 5913 5913 5913 5911 5911 5910 5910 5909 5908 5908
5905 5902 5912 5916 5911 5909 5906 5904 5903 5903 5903 5902 5902 5902 5903 5903 5904 5905 5906 5908 5908 5909 5911 5912 5912 5913 5914 5915 5915 5915 5915 5916 5916 5916 5916 5916 5916 5916 5916 5915 5915 5914 5913 5912 5912 5910 5909 5909 5908
5908 5906 5913 5912 5913 5910 5908 5905 5904 5904 5904 5903 5903 5903 5904 5904 5905 5906 5907 5909 5909 5910 5911 5914 5914 5915 5916 5917 5917 5917 5917 5917 5918 5918 5917 5918 5918 5917 5917 5917 5917 5916 5915 5914 5913 5912 5912 5910 5909
5909 5908 5911 5913 5909 5914 5908 5907 5905 5904 5904 5903 5903 5903 5904 5905 5905 5906 5907 5908 5910 5911 5913 5915 5916 5917 5918 5918 5918 5918 5918 5918 5918 5918 5918 5919 5919 5919 5919 5919 5918 5917 5916 5916 5914 5914 5913 5912 5910
5909 5913 5912 5910 5908 5910 5910 5907 5905 5904 5903 5903 5903 5903 5905 5905 5906 5906 5908 5910 5912 5913 5914 5916 5917 5918 5919 5920 5920 5920 5919 5919 5920 5919 5920 5920 5920 5920 5921 5921 5920 5919 5918 5917 5915 5914 5914 5913 5912
5910 5910 5911 5909 5910 5908 5910 5908 5906 5905 5904 5904 5903 5903 5905 5906 5906 5907 5909 5911 5913 5914 5916 5917 5918 5920 5921 5921 5922 5921 5921 5920 5920 5920 5920 5921 5921 5922 5922 5922 5922 5921 5919 5919 5917 5916 5915 5913 5911
5906 5906 5907 5907 5907 5907 5907 5908 5907 5906 5904 5904 5903 5904 5905 5907 5908 5909 5910 5912 5913 5915 5916 5918 5919 5921 5922 5922 5923 5923 5922 5922 5921 5922 5922 5922 5922 5923 5923 5922 5922 5922 5920 5919 5918 5917 5915 5913 5911
5903 5906 5911 5909 5906 5906 5908 5909 5908 5906 5906 5904 5905 5904 5906 5907 5908 5910 5912 5913 5914 5915 5917 5918 5920 5921 5922 5922 5923 5923 5923 5923 5922 5923 5923 5923 5923 5923 5923 5923 5922 5922 5920 5919 5917 5916 5914 5912 5911
5899 5906 5910 5906 5907 5906 5908 5894 5906 5907 5907 5906 5905 5905 5907 5908 5908 5910 5912 5913 5914 5916 5917 5919 5920 5921 5922 5922 5923 5922 5923 5923 5924 5924 5924 5924 5924 5924 5923 5923 5922 5921 5920 5919 5917 5915 5913 5911 5910
5900 5904 5911 5909 5906 5905 5908 5907 5908 5907 5907 5907 5906 5906 5907 5908 5910 5910 5912 5913 5914 5915 5917 5919 5920 5921 5921 5922 5922 5923 5923 5924 5925 5925 5925 5925 5925 5924 5923 5922 5922 5921 5919 5918 5915 5913 5912 5911 5910
5901 5907 5908 5909 5904 5905 5906 5909 5907 5906 5907 5907 5906 5907 5908 5908 5910 5911 5911 5912 5914 5915 5916 5917 5918 5919 5920 5920 5921 5922 5922 5923 5924 5925 5925 5925 5924 5923 5922 5920 5919 5918 5917 5915 5914 5912 5911 5909 5908
5893 5902 5906 5908 5905 5903 5907 5909 5910 5905 5906 5906 5906 5906 5907 5908 5910 5910 5911 5912 5913 5914 5915 5916 5917 5918 5918 5919 5920 5921 5922 5922 5923 5923 5923 5923 5922 5920 5919 5918 5917 5916 5915 5913 5911 5909 5907 5906 5905
5887 5896 5904 5908 5906 5902 5907 5904 5909 5907 5904 5905 5905 5905 5905 5906 5908 5910 5911 5911 5912 5913 5913 5914 5915 5916 5917 5918 5919 5920 5920 5921 5921 5921 5920 5920 5919 5917 5915 5914 5913 5913 5912 5910 5908 5906 5905 5904 5902
5882 5889 5897 5903 5895 5897 5900 5906 5903 5906 5903 5903 5903 5904 5905 5905 5906 5908 5909 5909 5910 5910 5911 5912 5913 5914 5915 5916 5917 5918 5919 5919 5918 5918 5917 5916 5915 5913 5912 5911 5910 5910 5908 5907 5906 5904 5902 5900 5899
5878 5887 5891 5896 5900 5899 5899 5901 5902 5900 5902 5901 5902 5902 5903 5904 5905 5906 5907 5907 5907 5908 5908 5909 5911 5912 5913 5914 5915 5916 5916 5915 5915 5913 5913 5911 5910 5909 5909 5908 5907 5907 5906 5904 5902 5901 5899 5896 5894
5875 5881 5886 5890 5892 5888 5896 5893 5900 5888 5900 5902 5902 5900 5900 5901 5902 5903 5903 5904 5905 5905 5905 5906 5907 5908 5910 5911 5912 5913 5913 5912 5910 5909 5908 5908 5907 5907 5907 5906 5905 5903 5902 5900 5898 5896 5895 5893 5891
5863 5871 5876 5880 5880 5882 5889 5893 5888 5901 5898 5897 5899 5900 5898 5898 5899 5900 5901 5901 5901 5901 5901 5902 5903 5904 5905 5907 5909 5909 5908 5907 5906 5905 5905 5905 5905 5905 5904 5903 5902 5900 5898 5897 5894 5891 5889 5888 5887
5852 5860 5864 5869 5875 5881 5885 5881 5888 5892 5892 5893 5894 5899 5897 5894 5896 5897 5898 5899 5899 5898 5898 5898 5898 5899 5901 5903 5904 5904 5903 5903 5902 5902 5902 5902 5901 5901 5901 5900 5900 5897 5893 5890 5889 5887 5884 5882 5881
5844 5845 5862 5869 5873 5875 5878 5881 5882 5879 5884 5888 5887 5891 5893 5892 5892 5892 5894 5896 5896 5896 5895 5894 5894 5894 5896 5897 5898 5900 5900 5899 5899 5899 5900 5900 5899 5899 5897 5896 5895 5892 5890 5886 5882 5881 5879 5876 5874
5830 5847 5850 5853 5860 5863 5870 5874 5875 5877 5876 5878 5882 5885 5888 5888 5886 5888 5890 5891 5892 5893 5892 5891 5890 5890 5890 5891 5894 5895 5896 5896 5896 5898 5899 5897 5897 5895 5895 5892 5889 5885 5881 5881 5875 5872 5870 5868 5866
5820 5825 5836 5847 5851 5855 5862 5864 5872 5871 5868 5869 5874 5879 5884 5884 5883 5883 5885 5886 5887 5888 5889 5888 5887 5886 5887 5888 5890 5892 5893 5893 5894 5896 5895 5893 5893 5892 5891 5887 5885 5881 5877 5871 5865 5858 5858 5859 5858
5809 5817 5827 5831 5837 5843 5851 5859 5867 5866 5865 5867 5872 5878 5880 5880 5881 5879 5880 5881 5882 5884 5885 5886 5885 5884 5885 5885 5887 5889 5890 5890 5890 5892 5891 5889 5889 5887 5885 5882 5878 5874 5870 5865 5859 5853 5850 5852 5850